Wind_Speed
5 5 6 6 6 7 7 8 8 9 9 9 10 10 10 10 10 9 8 7 8 9 7 6 6 6 8 8 8 8 8 8 8 9 11 11 10 9 8 7 4 3 1 1 1 2 3 5 6 7 6 6 6 6 6 5 5 5 4 5 5 6 4 1 4 4 3 5 2 7 9 10 7 8 10 11 11 14 13 15 14 14 18 22 25 20 16 18
5 5 6 6 7 7 7 8 8 9 9 10 10 11 11 11 11 10 9 7 7 8 8 7 6 6 7 9 8 9 9 10 10 13 14 12 10 10 9 8 5 3 2 1 1 1 4 6 7 8 8 8 7 7 7 5 5 6 4 5 6 6 2 2 5 5 4 6 2 4 8 10 7 6 9 9 10 15 15 16 16 16 19 23 30 27 23 24
5 5 6 6 6 7 8 8 8 9 9 10 11 11 12 12 12 11 10 9 7 7 7 7 7 7 7 8 9 9 9 11 13 17 16 14 12 11 10 9 7 5 3 2 2 2 4 5 7 9 9 9 7 6 6 6 6 6 5 6 5 4 3 3 5 6 5 6 5 5 5 8 8 5 8 8 12 14 16 17 15 18 22 24 29 31 29 28
5 5 5 6 6 7 7 8 8 9 9 10 10 11 12 12 12 12 11 10 9 7 7 7 7 8 7 7 9 9 9 10 14 18 17 14 14 12 10 10 8 6 5 4 3 3 4 5 5 8 8 9 7 6 7 7 5 3 5 7 4 3 5 4 3 5 4 4 7 6 3 7 9 7 9 9 10 12 16 18 18 21 22 22 27 29 29 31
6 6 6 6 6 6 7 7 8 8 9 9 10 11 11 12 13 12 12 11 10 9 8 7 7 7 7 6 7 8 7 6 6 12 14 14 15 13 11 11 10 8 6 5 4 5 5 4 3 7 8 8 6 6 8 9 6 3 8 12 7 4 6 3 1 3 3 3 7 7 6 6 6 8 14 13 11 12 10 11 15 19 17 16 22 25 26 28
8 7 7 7 6 7 7 7 8 8 8 9 10 10 11 12 13 13 12 12 12 11 9 8 7 7 7 7 6 8 8 4 2 4 8 13 14 13 12 12 12 10 8 7 5 5 5 3 5 7 8 8 7 7 5 7 8 6 9 11 8 7 7 3 1 4 4 5 8 8 7 5 5 10 14 18 22 20 12 11 12 13 15 14 17 21 23 26
10 9 9 8 8 8 8 8 8 8 9 9 9 10 11 11 12 13 13 13 13 12 12 10 8 7 7 7 6 8 11 13 11 7 6 10 13 13 13 13 12 11 10 8 6 5 5 5 8 8 8 8 7 8 4 5 8 7 8 8 6 6 9 6 2 6 5 7 9 7 6 7 11 13 11 19 28 26 20 21 22 20 19 18 18 22 24 25
12 11 11 10 10 10 9 10 9 9 9 9 9 10 10 11 11 12 13 13 13 13 13 12 10 7 7 7 6 7 13 17 18 14 12 11 13 14 14 14 13 12 11 9 6 6 7 8 9 6 8 6 4 5 3 3 9 10 10 8 5 5 9 8 5 7 7 8 9 7 10 13 15 12 12 23 28 25 23 23 26 29 26 23 23 25 25 26
14 14 13 13 12 12 11 11 11 11 11 10 11 11 11 11 11 12 12 13 13 13 13 13 11 8 7 7 6 7 12 15 15 14 15 15 15 16 17 15 14 12 11 10 7 7 7 7 7 4 8 7 5 4 2 4 6 6 8 8 6 7 9 8 8 10 9 9 7 8 13 15 14 10 15 29 31 27 24 21 23 27 28 27 27 26 27 28
17 16 16 15 14 14 13 13 13 12 12 12 12 12 13 13 13 13 13 14 14 14 14 13 11 9 7 6 6 6 9 11 10 11 12 15 16 17 17 17 15 12 10 10 9 8 7 8 7 7 9 8 7 5 3 4 4 4 8 10 11 13 11 9 11 12 9 9 10 11 13 13 9 6 13 19 18 17 18 19 20 22 23 24 26 26 28 29
19 19 18 18 17 16 16 15 15 14 14 13 13 14 15 15 15 15 15 15 15 15 15 14 11 9 8 6 9 9 11 12 11 11 11 11 14 15 16 16 15 13 10 10 10 9 9 10 9 9 7 3 4 5 5 7 6 6 8 11 14 16 15 13 13 13 10 7 11 11 11 14 8 7 20 19 11 11 12 15 19 21 21 21 23 25 27 30
22 21 21 20 20 19 18 18 17 17 16 15 15 15 16 16 16 16 17 17 17 16 16 15 12 9 8 8 14 16 16 16 15 14 13 12 13 13 14 15 15 14 12 9 10 11 10 10 9 8 7 5 6 4 3 6 6 7 7 10 14 13 14 17 15 12 11 6 7 6 8 14 12 16 32 27 18 16 12 14 17 20 23 21 23 24 27 29
24 24 23 23 22 22 21 21 20 20 19 18 17 16 16 17 17 17 18 17 18 18 17 15 12 10 8 10 16 18 17 17 17 17 16 15 15 14 14 15 15 15 14 12 12 11 10 10 9 8 9 8 7 5 5 4 3 7 7 7 10 11 11 12 11 9 9 7 8 6 8 11 12 23 30 19 19 19 14 15 17 20 23 23 24 25 28 29
26 26 26 25 25 25 24 24 23 23 22 21 20 19 18 18 18 18 18 18 18 18 18 16 13 10 9 12 18 19 18 18 17 18 17 16 15 15 14 14 15 15 14 13 13 11 11 10 9 9 9 8 7 6 7 5 5 6 5 5 6 9 7 6 10 10 9 6 9 8 7 11 11 16 19 15 17 17 14 16 17 19 22 25 27 28 30 31
28 28 28 28 27 27 27 26 26 26 25 24 23 22 21 20 20 19 19 19 18 18 18 16 13 9 9 15 19 18 17 17 18 19 17 16 14 13 13 13 13 13 13 12 12 11 10 9 8 8 5 5 5 6 8 7 6 6 5 6 7 7 6 6 10 11 8 4 10 10 6 11 14 6 12 17 15 14 14 15 16 18 21 24 28 30 31 32
29 30 30 30 30 29 29 28 28 28 28 27 26 25 24 24 23 22 22 21 20 20 17 14 13 9 7 13 17 17 18 18 18 17 16 15 13 13 13 11 11 12 12 11 10 10 9 7 7 7 4 4 5 5 7 7 7 7 7 8 8 8 9 5 7 10 7 4 11 13 7 9 10 1 12 16 15 14 14 15 18 22 23 23 26 31 33 34
29 30 30 31 31 31 31 30 30 30 30 29 28 27 27 26 26 25 24 22 21 19 16 11 10 8 10 15 16 17 19 19 18 16 14 12 12 13 11 10 11 11 9 9 9 8 7 6 5 6 7 6 6 5 5 7 7 6 6 7 10 11 11 7 3 6 8 6 9 13 11 14 14 11 10 13 15 15 16 20 23 26 28 26 24 28 33 35
26 27 28 29 29 30 30 30 31 31 31 30 30 29 28 28 28 27 26 23 19 15 12 10 6 3 9 15 14 14 18 17 15 15 13 11 12 12 12 11 10 8 7 7 7 8 7 6 4 4 6 7 7 6 6 8 9 9 9 7 9 11 11 12 5 5 10 8 9 12 13 17 18 18 21 19 16 17 18 23 26 29 31 27 24 26 29 34
24 24 25 25 26 27 26 26 27 28 29 28 27 27 28 27 26 25 24 20 13 8 6 8 11 5 5 9 12 13 16 14 11 13 13 12 12 12 13 11 8 9 7 5 7 9 7 5 4 6 8 9 10 11 12 14 14 14 12 9 11 11 11 15 7 5 9 7 9 13 15 18 18 17 20 23 22 20 21 23 26 30 29 26 25 26 27 31
24 24 25 25 25 25 24 24 25 25 26 25 24 23 20 16 13 12 12 15 17 15 13 11 13 13 12 12 14 15 14 14 12 13 13 12 11 11 12 9 7 8 8 7 6 7 6 5 7 10 12 12 12 14 16 16 14 12 11 10 13 13 13 16 7 5 5 5 10 15 16 19 20 17 18 22 24 22 23 24 27 29 26 23 24 26 26 28
23 24 25 25 25 24 24 24 24 24 23 23 23 18 12 9 8 6 6 12 19 21 20 19 18 20 21 20 20 19 16 13 15 16 14 12 11 9 11 11 7 7 10 10 4 4 5 6 11 17 16 13 9 8 11 14 14 12 11 11 12 11 13 14 4 5 5 4 9 13 16 19 18 16 17 21 21 20 22 25 27 27 25 24 24 24 22 21
22 22 23 24 24 23 23 23 23 23 22 22 20 15 12 13 13 12 11 11 16 20 21 22 24 26 27 26 27 27 19 13 15 19 18 15 15 11 10 13 9 7 8 8 4 3 6 10 18 20 11 5 4 4 8 12 13 12 9 8 10 10 12 10 2 6 5 4 7 11 13 17 18 18 19 20 20 21 27 29 28 26 24 24 24 20 17 18
20 20 21 22 22 21 22 22 21 21 20 19 17 14 13 13 13 13 11 8 13 20 23 24 26 27 28 28 30 28 21 17 16 19 23 20 18 16 13 11 11 10 8 10 10 7 8 10 14 12 5 5 8 6 7 10 9 9 8 7 10 9 8 7 2 3 5 6 8 11 12 14 16 17 19 24 26 25 27 26 26 27 24 26 26 17 13 17
18 18 20 20 19 19 19 19 19 19 18 16 15 13 12 10 10 9 8 8 10 14 20 24 24 26 27 26 27 25 22 21 16 16 24 24 18 14 15 13 12 11 10 14 15 13 13 8 2 2 4 7 10 7 8 8 7 9 10 10 11 11 11 10 3 3 7 8 4 8 11 11 12 13 14 15 17 17 18 17 20 28 30 32 31 18 14 16
16 17 18 18 17 16 17 17 16 15 14 12 11 9 8 6 6 5 5 7 8 8 15 19 18 22 27 26 25 20 14 17 20 19 21 24 20 11 8 11 11 12 15 17 15 14 16 7 5 4 5 6 8 9 9 8 7 9 11 14 16 14 14 13 6 6 8 7 2 3 10 8 6 9 9 5 6 7 9 10 14 23 28 30 29 19 17 18
15 16 16 16 15 14 14 12 10 11 9 8 8 6 5 3 3 3 4 5 7 5 6 9 10 12 15 19 22 15 5 10 19 23 20 20 23 14 5 7 9 10 11 11 10 8 8 3 4 7 8 6 8 11 11 9 8 8 5 7 12 13 14 13 8 4 6 7 1 2 8 9 4 6 8 5 6 7 7 8 12 17 21 24 27 22 17 17
16 16 17 16 14 13 11 8 9 9 6 8 7 5 5 4 2 2 3 7 8 6 8 8 8 8 9 10 17 14 2 3 7 15 19 20 22 16 8 8 7 6 2 2 5 4 5 6 3 6 8 7 9 10 10 11 9 5 1 3 3 6 10 9 7 6 6 9 5 4 5 12 9 6 10 10 8 8 8 11 14 16 18 21 25 25 19 17
17 17 19 18 14 13 11 10 10 7 6 8 5 6 6 6 4 2 2 8 4 7 6 6 7 8 8 10 19 13 3 1 3 8 19 22 19 13 11 13 10 7 7 7 7 2 3 6 6 8 8 7 8 3 3 11 9 2 3 3 2 0 3 3 4 6 7 9 7 7 7 9 11 5 12 14 12 10 12 15 15 16 19 18 18 20 18 16
18 18 20 20 17 14 11 10 8 6 7 6 5 8 9 9 4 1 4 7 1 5 4 7 7 8 8 10 16 12 3 2 0 3 12 17 17 10 6 10 10 7 8 11 10 3 3 1 3 7 8 7 4 4 3 6 6 2 5 4 5 3 1 1 4 5 6 9 10 8 10 7 12 3 10 11 10 11 12 13 14 15 19 17 16 18 16 14
20 20 21 21 20 17 14 11 9 8 7 6 9 10 10 7 2 3 8 6 1 2 5 7 6 8 12 9 8 11 6 1 2 6 7 7 12 9 3 3 5 6 5 8 10 6 2 4 1 4 6 2 5 5 5 2 2 6 5 3 3 2 2 2 4 2 5 11 10 12 17 12 10 2 9 8 10 13 11 10 11 12 14 14 14 17 17 15
22 22 23 24 22 19 16 14 12 9 6 9 10 13 10 4 1 7 9 1 2 2 6 6 6 8 13 11 7 9 10 6 5 9 6 3 7 9 4 2 3 4 6 7 9 8 6 5 2 3 4 4 6 4 3 4 2 4 3 2 2 4 2 3 4 3 6 10 5 12 19 17 11 3 7 8 11 15 11 7 9 9 9 11 12 15 16 16
25 24 25 26 26 23 19 16 14 9 7 10 14 15 7 2 5 11 5 5 1 6 6 6 8 8 11 12 7 7 8 7 9 10 7 5 6 8 9 7 7 4 6 7 6 6 6 8 7 4 3 7 6 3 3 2 3 4 5 5 4 4 3 4 5 4 8 8 3 8 11 13 13 9 7 8 9 13 11 6 9 9 9 11 12 14 16 18
27 26 27 29 30 29 24 19 16 10 8 12 16 11 3 5 9 10 7 4 1 2 3 2 7 7 8 8 6 5 4 4 10 11 8 7 6 8 11 12 9 4 5 4 3 4 3 3 8 7 2 10 12 7 5 4 7 9 8 7 6 5 5 6 6 6 9 7 3 6 4 6 8 7 14 17 13 14 12 10 13 14 13 13 11 14 17 20
30 29 31 32 34 33 28 23 19 12 10 14 13 7 4 9 9 3 7 10 3 2 3 4 5 7 7 7 4 6 5 4 9 10 8 8 6 7 10 14 14 7 2 2 3 5 6 5 9 10 4 13 17 12 6 3 7 11 8 7 8 6 6 7 7 8 7 6 1 4 2 5 3 1 10 17 17 17 14 15 18 19 20 16 12 14 16 21
32 31 33 35 36 36 33 29 23 15 14 16 8 4 8 11 8 2 5 7 3 2 2 2 4 6 7 7 2 5 7 5 8 9 7 9 8 8 9 12 17 11 4 5 4 4 7 8 7 6 4 13 14 9 4 4 4 7 6 7 8 6 7 7 7 5 3 7 5 5 4 6 5 1 5 8 13 16 14 16 16 17 22 20 16 18 19 21
31 32 34 37 40 39 35 32 27 20 19 17 5 6 11 9 6 2 3 3 3 3 4 1 4 5 7 6 5 7 5 2 7 6 6 10 10 11 9 8 15 17 11 7 3 3 5 5 5 5 1 6 3 2 4 2 2 5 6 7 3 1 3 7 8 2 2 7 8 5 7 8 8 6 8 10 12 15 14 15 13 16 22 20 19 23 24 24
32 33 36 41 42 41 38 34 29 24 24 18 7 8 10 8 9 8 2 1 1 3 5 5 6 7 8 6 6 10 7 2 6 6 4 7 8 12 12 8 12 18 17 13 5 3 5 4 3 4 2 2 3 4 1 2 1 4 5 4 1 3 1 4 6 3 4 10 9 9 13 11 9 7 8 14 14 15 16 14 11 14 17 17 21 27 29 29
36 37 39 44 45 42 39 35 31 27 23 14 8 13 9 7 13 12 5 4 2 4 7 8 7 7 9 9 7 9 11 6 7 6 5 5 6 10 13 9 10 17 21 18 7 2 2 3 2 2 1 2 3 2 3 2 2 1 2 2 0 1 4 5 6 5 7 9 9 15 20 14 10 6 7 14 15 15 15 13 10 12 12 15 22 29 31 31
37 32 30 40 43 41 40 35 32 29 18 8 9 11 8 9 11 8 5 5 4 6 9 10 8 7 8 9 6 6 11 8 7 6 6 6 5 7 12 9 9 15 20 18 9 4 2 3 3 1 2 1 3 4 5 5 4 1 4 3 1 2 3 5 5 5 7 8 9 15 18 13 8 6 9 16 16 15 14 11 10 11 13 17 24 29 31 32
31 20 17 31 35 33 37 34 30 23 11 6 10 9 7 8 8 6 6 5 3 4 6 9 9 9 9 7 6 4 7 6 6 7 6 7 7 6 10 10 6 8 13 13 9 4 1 3 4 1 1 3 4 6 9 9 8 5 5 6 6 3 1 2 4 5 6 7 7 9 14 12 4 3 9 12 11 12 12 10 9 9 14 21 26 30 32 33
24 12 9 24 23 22 31 29 19 12 5 4 9 9 8 6 6 8 8 6 5 3 2 3 6 7 7 7 6 4 4 4 5 7 6 7 9 5 8 12 9 5 5 4 6 7 3 4 6 4 3 6 7 8 10 10 8 8 9 10 10 9 5 3 7 6 3 5 8 7 13 15 2 7 7 6 4 6 7 8 7 8 15 23 27 31 31 31
15 7 8 17 16 20 30 20 8 9 7 6 8 6 7 7 7 9 8 7 7 2 1 2 4 5 5 7 8 4 3 3 4 6 6 6 9 6 4 10 9 8 7 3 6 8 3 2 6 8 8 7 5 3 2 2 2 3 6 8 10 9 9 8 7 5 3 5 8 7 11 16 4 8 5 4 4 3 4 6 8 10 17 24 27 29 28 29
10 7 8 13 16 25 27 9 2 7 5 6 7 6 8 7 5 7 9 11 8 3 3 4 5 9 9 7 7 4 3 5 5 7 8 7 8 7 4 3 4 5 4 3 2 3 2 2 5 8 6 6 3 2 2 1 1 4 6 7 8 9 10 9 5 2 3 5 8 8 10 14 5 6 2 4 3 5 7 11 15 16 17 23 27 27 26 28
14 13 11 14 22 30 22 5 4 9 6 6 7 10 12 9 8 9 8 11 9 4 5 6 5 9 8 4 5 8 8 7 5 9 11 9 12 11 9 6 5 3 3 3 2 3 4 3 6 7 6 7 6 4 3 2 4 6 8 9 10 11 10 6 2 1 4 12 17 11 8 13 9 1 2 8 7 7 9 16 22 19 16 22 26 27 26 27
11 11 13 23 37 37 21 9 9 8 8 10 11 13 13 9 12 19 16 11 12 9 6 6 7 7 6 4 6 10 12 10 7 7 8 9 14 15 10 10 8 7 10 10 5 3 4 3 5 8 9 9 10 11 6 2 4 6 8 12 13 13 13 9 5 5 9 17 20 13 10 14 16 13 15 16 13 11 13 19 20 17 19 22 24 27 28 27
7 5 5 17 35 37 25 19 15 7 8 12 10 10 15 12 10 19 20 13 14 17 12 6 4 4 6 8 9 12 15 16 11 8 7 9 11 9 7 10 12 12 13 11 7 4 2 3 9 12 13 11 13 16 11 4 5 6 9 14 14 14 17 13 8 9 13 16 14 14 17 19 19 22 23 22 21 20 20 22 17 14 20 24 24 27 29 30
6 4 4 7 16 21 20 18 14 7 10 13 7 6 16 17 10 12 16 14 16 19 13 7 7 7 9 12 13 13 15 16 14 13 12 13 12 8 5 6 7 11 9 5 5 5 1 5 13 17 20 19 20 24 22 19 15 11 11 14 14 16 17 15 15 19 19 12 10 15 22 21 18 20 24 26 26 24 21 22 19 15 19 24 28 30 30 30
8 6 7 9 9 8 10 17 18 12 12 13 9 8 15 17 14 12 13 14 16 16 10 8 14 16 16 16 13 12 12 12 12 14 14 14 14 12 9 6 7 12 11 4 3 4 2 7 13 16 20 22 22 24 25 24 21 18 18 17 17 17 18 19 23 23 17 13 14 20 25 23 17 17 23 26 26 25 24 27 29 26 22 23 25 27 29 30
14 13 15 15 10 5 11 23 25 18 16 14 10 11 15 18 19 17 12 9 11 15 15 12 14 20 22 21 15 12 11 10 11 13 13 15 15 11 8 9 8 9 10 5 3 5 3 6 11 14 17 18 18 21 24 26 24 22 24 22 17 14 18 24 23 15 15 21 22 24 27 25 19 19 24 29 31 31 32 35 36 34 30 26 20 19 24 29
14 13 14 17 13 10 14 17 16 12 14 15 11 11 15 19 22 19 14 13 10 11 17 20 19 20 21 22 20 17 17 17 18 17 15 14 13 9 7 9 6 3 5 4 2 3 5 8 10 11 11 14 19 23 24 25 26 25 25 22 18 18 22 25 18 9 14 24 25 25 26 21 19 23 27 31 34 33 31 33 33 32 32 30 23 21 27 33
18 16 14 14 10 7 11 11 8 9 10 11 11 10 14 20 23 19 17 21 21 14 16 23 25 20 19 22 22 20 21 23 24 26 23 17 13 10 8 7 7 5 4 4 3 4 6 7 7 7 10 12 18 22 22 22 24 24 22 20 22 25 26 24 17 14 18 22 23 23 19 15 18 23 25 26 28 27 28 29 27 28 34 34 27 25 30 37
21 19 17 14 6 4 6 6 7 9 7 7 11 13 15 18 21 20 16 18 26 27 24 23 21 17 16 19 23 25 31 35 35 38 37 31 23 17 12 10 11 9 6 5 4 5 6 6 5 7 10 11 16 21 20 17 16 14 17 24 28 28 26 24 23 24 24 20 17 15 13 14 18 19 20 23 25 27 28 24 19 24 33 35 28 25 31 38
Wind_Direction
358 360 1 3 2 3 2 3 4 2 3 3 4 3 4 5 3 3 1 355 353 353 347 337 314 277 260 261 261 259 258 255 256 256 251 241 235 236 226 226 217 203 210 253 261 229 236 234 232 238 231 229 229 222 238 235 202 206 230 246 254 264 272 309 275 278 314 305 172 166 193 219 219 179 212 231 229 237 241 238 231 230 235 237 242 242 241 248
343 345 349 353 352 353 353 354 356 355 356 356 358 359 0 3 3 1 358 354 345 343 344 339 328 300 270 259 260 263 264 264 265 262 251 237 232 228 220 224 218 206 219 250 280 227 237 240 238 236 224 224 228 224 234 222 198 222 252 257 257 275 307 359 293 278 284 289 270 190 206 225 234 179 190 221 231 226 232 239 228 230 235 238 244 241 239 247
330 336 340 343 344 346 345 347 348 348 349 350 352 353 355 357 1 2 356 354 346 337 335 331 328 317 290 260 255 259 266 275 274 264 251 235 230 224 220 225 221 218 228 241 268 246 247 262 247 228 226 232 220 212 224 213 217 231 241 257 265 301 314 283 263 262 273 277 267 251 214 221 240 192 171 218 243 230 229 235 223 225 230 230 242 243 238 243
322 327 332 337 339 338 338 341 342 343 343 344 346 347 350 351 355 360 356 352 347 339 328 323 321 318 308 273 254 254 270 284 271 260 252 237 230 226 224 228 225 226 231 243 260 260 286 303 253 219 230 242 213 207 223 208 215 213 216 255 299 2 306 279 242 257 266 261 263 258 222 232 237 205 198 227 249 244 240 240 230 229 234 226 231 244 243 240
314 318 325 330 331 333 334 336 337 339 339 341 342 342 345 346 349 354 354 350 347 343 333 321 314 313 311 288 260 248 256 282 266 256 250 234 229 227 227 232 230 231 233 242 255 269 291 308 239 212 231 244 212 216 227 203 209 244 238 254 285 302 283 302 93 253 239 246 259 245 239 242 222 213 223 229 238 247 251 248 237 233 243 235 226 241 247 241
306 310 315 319 322 325 326 329 332 334 336 338 338 340 342 343 344 347 349 347 345 345 340 330 316 306 302 291 269 238 228 255 314 291 249 225 227 228 231 237 235 236 237 242 253 268 275 250 221 218 234 247 226 226 215 188 209 250 253 252 264 261 262 288 68 251 242 240 245 239 249 242 223 239 234 230 237 244 255 260 251 234 239 244 236 240 245 244
300 303 306 310 313 315 317 321 323 325 329 333 334 335 337 339 340 341 344 342 343 343 342 341 325 305 293 283 266 234 227 251 270 281 262 228 228 232 237 242 240 241 240 245 256 261 259 239 236 238 248 256 245 234 192 180 212 239 267 264 259 249 250 261 260 249 243 237 243 248 260 243 239 255 252 239 241 244 252 260 259 253 248 248 246 246 249 250
293 296 299 302 305 307 310 310 313 317 319 322 325 327 329 333 333 334 337 337 339 338 339 342 333 314 291 273 263 241 233 251 264 265 260 245 238 240 243 245 246 247 245 247 245 247 257 257 256 259 258 261 266 243 197 220 223 224 257 277 266 251 251 252 246 245 239 236 244 248 252 250 248 264 270 252 250 249 249 255 259 259 256 250 249 250 252 250
289 290 293 295 298 300 302 304 306 307 309 313 316 317 319 322 324 326 328 328 331 333 334 337 332 317 293 273 259 255 247 256 270 266 256 249 245 245 246 247 248 249 249 250 244 247 261 269 262 267 280 286 292 269 204 242 239 225 265 290 273 260 259 248 245 248 240 234 227 232 247 252 250 263 271 257 256 257 249 246 251 257 257 251 248 247 249 249
285 286 289 290 292 294 295 297 298 300 303 305 307 310 312 313 316 318 319 321 323 325 328 329 326 315 295 272 246 257 263 264 272 267 258 252 248 248 248 245 246 249 252 254 254 255 262 273 273 278 288 285 270 258 208 242 284 310 293 292 274 265 262 244 247 247 236 238 221 226 252 254 237 236 261 256 253 250 236 232 235 246 254 250 247 243 245 248
284 285 287 288 289 290 290 292 293 294 295 297 301 303 305 307 309 311 313 315 316 319 323 322 320 307 289 263 240 253 273 273 272 269 263 256 250 250 249 242 243 247 251 258 260 258 261 272 280 282 284 279 268 250 233 254 280 311 305 294 274 262 254 237 240 237 224 236 218 224 261 254 219 216 249 247 241 236 211 216 228 240 250 246 245 242 242 246
284 284 286 287 288 288 289 290 290 291 292 292 294 295 298 300 302 305 307 310 313 315 317 316 314 300 286 259 247 259 276 277 275 270 261 258 254 253 251 244 244 247 249 255 260 262 266 276 278 272 273 289 293 269 253 263 272 295 294 288 280 269 257 236 227 219 209 207 185 201 270 250 210 223 250 245 234 237 216 216 230 242 250 245 242 240 240 244
284 284 286 286 287 288 288 289 290 291 290 289 290 291 293 294 296 299 301 304 308 311 313 313 306 291 279 258 259 271 280 277 274 269 261 257 254 252 253 251 249 249 249 248 255 262 265 272 270 261 267 277 280 278 291 276 258 283 269 266 282 280 266 228 203 182 192 198 162 174 274 263 211 222 244 238 222 230 220 224 232 241 250 247 242 239 241 243
283 283 284 285 286 287 287 289 290 290 290 289 289 290 290 290 293 294 296 299 301 305 307 307 300 283 263 263 273 277 276 276 271 264 259 256 254 254 254 253 251 246 246 247 253 260 260 267 264 257 258 255 265 280 280 252 217 258 260 243 256 268 267 180 168 167 181 195 166 179 259 274 261 236 227 211 215 223 220 228 232 236 244 247 246 241 242 244
280 281 282 283 284 285 286 287 289 290 289 289 288 290 291 291 291 292 294 295 297 300 300 298 291 275 262 270 277 278 275 273 268 263 258 253 252 253 251 250 248 242 242 244 248 253 256 259 254 254 252 231 250 269 270 256 230 231 246 256 242 245 254 187 176 188 193 173 173 191 241 262 280 279 178 190 213 219 227 238 237 240 242 243 247 245 244 245
276 278 279 281 282 283 284 285 287 287 287 288 289 291 292 292 292 293 293 294 296 296 294 290 279 264 263 272 272 275 275 267 265 264 255 249 245 244 246 245 240 238 239 241 245 249 250 249 247 253 249 232 241 250 267 272 257 228 226 262 260 254 265 230 177 198 212 150 177 209 251 263 274 283 155 185 212 218 233 248 250 254 252 243 244 246 247 245
275 276 277 278 279 280 281 283 284 285 286 287 289 290 291 291 290 291 291 292 292 290 284 274 268 258 254 263 267 270 270 268 265 260 250 244 238 233 236 234 233 235 234 239 242 237 235 231 241 252 236 233 243 243 261 265 264 251 228 248 262 264 270 257 203 196 200 192 207 216 237 255 262 266 240 217 212 216 237 256 259 261 258 250 243 244 247 246
279 279 279 278 278 279 280 281 281 282 283 285 287 288 288 288 288 289 288 287 284 282 276 248 221 248 251 248 254 261 269 273 266 253 242 232 229 225 222 224 226 224 222 235 231 213 215 218 227 264 243 229 227 220 230 242 257 280 273 266 273 271 264 262 265 162 176 201 233 227 234 251 257 265 268 259 239 227 237 255 262 262 260 256 247 242 242 245
283 283 283 283 282 282 282 282 281 281 282 284 285 286 288 288 287 285 282 275 258 244 267 218 192 222 269 251 260 270 275 277 262 245 235 227 225 219 217 217 211 208 212 217 201 193 197 209 224 252 245 229 220 214 222 242 260 283 289 284 283 283 270 269 277 146 180 212 232 236 245 256 260 261 266 269 266 256 254 259 261 262 261 258 253 245 238 243
283 284 285 286 286 286 286 285 283 284 284 285 285 288 292 290 285 281 267 248 236 240 258 237 214 242 268 272 276 278 274 271 259 242 233 228 218 211 212 204 196 210 223 225 197 177 191 221 234 239 242 242 239 232 235 251 268 283 285 279 275 275 271 272 273 146 183 236 245 247 253 260 264 264 264 269 271 271 270 265 260 261 263 258 254 249 239 241
282 284 285 286 287 289 289 288 287 286 287 286 288 292 287 270 263 274 268 256 257 258 258 251 243 249 257 261 265 268 268 268 260 245 239 228 206 200 198 190 200 220 219 220 195 147 188 224 236 241 251 259 267 264 255 259 269 272 269 272 273 267 267 273 265 140 167 229 260 263 265 265 264 265 265 266 266 264 263 263 263 265 268 265 258 253 242 237
282 282 284 285 286 290 290 290 290 289 289 288 288 286 270 263 262 264 274 280 271 261 255 254 251 252 255 256 257 261 259 256 254 242 238 220 198 202 191 185 215 228 193 188 179 185 209 233 244 248 255 264 273 275 266 263 264 265 260 261 265 262 271 273 181 135 168 217 270 279 277 273 270 266 262 258 257 255 251 255 264 269 271 268 263 258 241 228
285 285 286 286 289 293 292 291 292 291 290 288 288 281 269 268 264 262 268 278 273 262 257 256 253 253 255 253 254 254 246 243 244 238 237 218 193 205 204 195 226 229 189 193 209 217 221 236 248 251 236 237 255 240 241 257 251 246 243 247 256 255 267 269 182 146 201 219 273 293 284 274 269 258 250 247 247 251 252 252 260 263 264 264 264 263 231 218
292 292 292 292 296 299 296 295 294 292 291 287 284 275 269 267 261 268 273 268 269 260 256 255 250 248 247 248 252 246 237 239 237 233 233 215 188 198 213 215 232 234 219 218 221 226 239 241 183 162 188 227 252 231 216 242 244 232 228 234 250 252 257 264 299 341 255 234 253 296 284 268 258 246 239 237 235 245 252 252 255 255 257 262 266 260 223 219
300 299 300 300 304 308 304 301 297 294 293 288 280 267 263 260 246 272 292 270 253 237 251 251 242 244 242 241 242 235 233 242 236 232 226 206 189 183 207 215 224 238 234 229 230 237 247 236 134 187 217 205 236 244 225 227 250 243 226 230 244 257 265 268 309 353 296 264 168 329 298 272 231 234 233 197 187 217 233 239 246 249 251 257 264 253 224 229
305 304 305 305 312 319 314 309 303 302 301 287 277 255 244 229 225 298 319 278 251 200 210 218 215 229 231 232 226 209 232 254 237 233 223 206 198 189 203 205 208 245 245 234 239 247 245 198 138 227 233 210 231 252 238 219 243 253 235 243 248 257 265 268 287 306 281 281 199 68 308 285 229 217 229 204 192 193 192 229 247 248 244 243 251 250 231 236
306 307 307 307 318 328 326 317 304 304 297 282 273 228 213 182 145 358 342 281 254 167 148 173 184 191 196 208 191 174 232 259 215 218 206 202 200 197 222 207 195 236 221 217 249 231 202 183 176 217 222 228 231 249 238 211 227 250 15 352 260 253 261 259 269 256 260 291 279 177 246 278 272 220 217 221 222 210 208 241 252 253 248 235 239 247 242 245
304 307 306 307 317 326 327 319 308 298 269 272 256 194 175 147 129 68 295 278 255 130 139 170 175 193 192 177 175 177 321 27 152 198 190 193 192 191 229 227 230 234 177 191 234 216 159 187 192 190 198 226 223 257 218 195 218 251 63 37 67 328 266 238 249 256 272 292 273 202 185 264 281 209 193 209 215 218 223 238 249 251 251 242 234 241 245 247
298 301 302 304 311 314 315 313 310 288 262 251 199 179 154 144 138 46 247 258 198 126 145 163 173 193 171 155 184 207 317 29 342 173 176 190 190 184 247 242 254 261 195 211 243 282 63 148 200 187 199 225 196 48 21 203 216 152 117 87 79 88 99 168 243 268 282 274 258 212 170 235 283 201 167 193 202 210 220 232 242 244 246 246 234 234 242 241
290 294 295 297 302 303 305 308 301 283 253 210 188 166 143 149 167 253 234 241 280 126 124 152 175 167 156 156 202 217 222 220 100 129 156 189 196 202 291 268 260 275 233 240 263 272 114 90 28 215 215 212 107 75 22 10 128 134 143 123 115 185 170 202 238 259 279 264 244 204 181 207 273 188 147 178 193 197 203 219 237 244 243 235 224 229 236 231
284 286 286 288 291 292 296 299 294 284 237 204 181 155 149 158 210 239 233 285 340 171 131 171 180 149 167 183 200 194 201 218 151 153 177 172 189 206 223 206 201 242 251 248 255 245 200 174 202 212 183 124 107 102 53 49 135 161 172 188 216 228 197 212 216 165 250 262 221 184 187 199 236 217 152 185 193 189 186 209 247 261 251 233 224 230 230 216
278 279 279 281 282 279 280 284 285 280 231 198 169 159 172 215 226 236 225 60 10 190 153 179 178 171 197 208 213 178 182 209 180 181 199 179 187 200 201 201 174 193 245 228 227 230 214 209 192 153 149 176 174 148 106 109 185 201 192 193 231 245 227 230 218 188 235 254 136 156 190 208 234 246 229 224 199 189 189 217 259 265 255 247 235 232 228 209
273 274 274 273 275 276 276 275 274 269 233 190 169 167 207 241 232 230 193 158 230 173 111 127 168 180 198 209 219 175 177 213 177 186 203 187 208 215 212 218 203 224 257 212 217 216 225 231 174 167 193 189 189 194 202 189 183 194 190 185 207 232 246 247 238 236 247 249 138 129 182 236 260 252 227 229 214 201 209 228 244 246 246 250 233 224 228 212
268 269 268 268 271 271 268 263 260 255 218 185 173 168 192 230 240 198 183 205 217 94 72 70 151 183 205 218 206 167 205 223 164 181 201 187 212 223 216 220 217 235 278 220 255 216 244 275 177 173 168 170 187 211 213 136 173 196 195 196 215 227 239 247 251 253 268 289 215 146 178 236 272 132 199 220 215 204 218 231 232 236 239 243 230 223 230 217
266 266 265 267 264 258 256 253 249 242 202 179 180 195 196 227 242 197 217 223 201 148 102 72 158 188 223 230 201 193 224 224 170 179 202 199 213 217 209 210 205 203 191 214 240 181 242 265 168 137 112 158 184 217 179 116 186 196 184 209 232 239 229 247 275 273 315 316 271 190 222 246 257 243 160 199 202 189 210 227 223 229 233 235 232 231 234 224
264 265 263 264 257 252 253 246 239 232 199 173 168 222 219 238 237 219 265 238 219 170 131 181 201 203 233 221 194 207 216 210 182 186 214 216 230 230 218 205 195 193 189 194 207 175 231 267 131 112 66 155 169 273 175 184 228 165 177 208 225 317 241 247 272 297 94 282 267 219 243 258 265 250 169 165 181 181 204 221 216 224 228 227 230 234 237 232
261 260 259 258 255 254 252 240 233 222 193 171 171 219 227 243 236 243 268 102 252 188 171 229 213 198 231 232 208 193 176 185 190 188 214 206 229 227 213 214 197 193 201 203 216 231 230 263 171 167 228 142 26 343 266 299 317 142 185 217 90 37 312 249 262 268 243 263 270 260 261 263 267 260 168 165 182 191 208 217 215 224 224 222 229 235 239 238
264 257 253 256 256 254 250 236 222 206 182 170 209 225 228 233 233 235 202 148 196 190 202 236 216 194 225 245 240 179 166 186 176 176 219 206 220 202 185 204 199 194 209 211 223 275 208 253 241 176 290 104 91 277 222 216 233 186 282 296 40 215 210 205 227 247 251 259 269 272 274 267 252 250 175 175 191 202 210 213 213 219 216 219 229 235 241 241
264 251 245 253 253 248 243 229 207 190 173 174 217 222 231 232 231 228 190 184 213 203 215 236 231 220 228 247 263 175 171 192 172 174 215 207 218 182 166 188 199 200 210 202 207 252 195 230 248 47 344 112 140 220 207 177 175 235 302 276 220 248 234 211 212 228 240 250 265 278 282 272 244 228 178 174 190 205 205 203 207 214 215 217 226 233 239 241
257 244 242 250 248 242 232 211 187 178 173 201 215 221 236 230 226 223 208 207 222 219 231 243 243 245 242 244 267 227 199 210 193 200 211 196 220 205 168 179 192 205 209 195 205 233 141 227 239 89 345 237 203 199 194 191 182 183 226 221 198 199 267 289 250 234 236 246 256 268 274 274 263 163 164 162 185 201 194 200 204 207 218 220 226 233 238 241
256 240 248 246 244 231 209 188 171 180 191 221 225 234 241 241 241 229 218 218 233 250 273 252 247 254 260 251 249 233 210 227 222 225 231 214 232 237 172 187 195 164 152 175 213 213 180 212 225 208 211 226 219 197 196 205 194 186 199 201 199 191 182 231 236 222 214 241 245 247 265 272 254 120 133 123 153 191 191 211 209 202 217 221 228 235 238 242
261 244 253 242 235 208 191 178 178 199 200 220 230 240 231 233 250 237 216 207 218 246 348 265 245 240 253 256 252 232 168 218 231 227 240 234 238 252 185 194 194 152 145 182 216 210 185 164 225 232 230 234 230 180 199 256 241 251 232 208 207 194 186 210 221 208 186 222 245 245 258 267 247 110 99 84 116 191 215 228 241 243 231 227 232 236 238 241
255 259 260 243 228 202 189 178 226 203 216 248 249 259 234 224 246 240 221 211 207 191 205 234 250 238 239 248 250 241 203 218 222 233 260 272 258 281 330 260 204 156 186 244 230 196 108 93 227 244 260 269 269 87 48 8 197 256 255 225 220 214 210 221 224 218 184 195 230 235 242 260 264 97 69 293 256 241 235 233 249 257 239 227 232 234 236 241
258 259 241 223 213 201 191 181 209 210 234 253 252 251 241 238 240 233 224 207 196 179 205 226 236 231 232 225 227 240 242 237 239 245 259 272 264 278 316 292 239 186 232 289 24 164 178 191 216 235 259 263 258 242 225 203 198 224 234 221 222 223 221 232 245 236 233 228 236 243 245 255 259 133 255 271 256 229 229 238 247 253 241 227 229 233 235 238
267 251 219 202 197 197 202 211 208 216 223 225 237 236 233 241 234 234 238 220 200 193 203 226 222 211 208 202 224 240 242 242 248 239 234 250 258 264 273 257 235 228 244 261 279 211 206 215 199 220 238 230 233 241 233 161 179 215 233 224 219 214 210 221 230 217 235 239 239 244 250 257 270 282 283 281 272 257 257 258 252 248 246 237 228 231 234 235
264 238 203 194 196 204 222 226 217 218 208 216 232 227 228 238 236 234 236 227 214 211 211 221 213 199 203 208 226 238 235 233 232 226 226 234 245 250 237 227 228 233 242 253 249 212 195 227 214 228 242 237 242 253 263 270 206 192 216 220 214 212 210 216 228 226 234 241 239 242 250 258 269 275 279 281 276 271 270 272 265 240 236 238 230 230 234 235
267 228 178 179 201 220 239 239 232 224 204 209 206 196 220 228 233 231 220 216 223 220 219 221 205 210 216 210 224 237 232 231 226 226 239 241 241 243 214 199 221 227 230 240 219 190 156 233 229 237 243 243 250 256 261 265 254 235 234 225 214 214 212 211 223 229 234 243 247 244 249 254 257 262 270 274 273 273 271 272 275 256 236 237 236 235 236 238
258 259 227 213 205 209 230 232 233 235 221 213 202 202 220 222 223 224 211 214 222 212 208 221 213 219 224 215 221 234 231 234 229 224 234 239 243 246 232 217 214 203 197 193 176 163 200 241 235 243 247 245 251 256 258 263 262 258 257 248 227 214 207 212 225 230 230 239 249 248 249 254 255 257 263 266 268 271 271 273 277 273 260 251 242 236 238 242
246 265 271 263 248 226 231 226 221 224 223 217 212 214 221 223 223 223 211 209 219 206 206 220 212 214 223 222 224 230 224 228 233 225 225 228 232 237 236 234 224 188 176 176 167 156 186 238 235 243 253 253 255 258 258 260 263 262 258 254 243 225 216 223 229 226 225 237 245 249 252 258 261 259 260 263 265 269 275 277 276 275 274 271 256 241 246 254
245 257 278 285 280 287 284 258 236 233 227 223 226 218 219 228 229 228 216 207 211 199 204 223 226 216 218 221 223 229 226 227 237 235 226 223 222 221 229 230 223 179 160 172 184 172 197 225 228 238 256 253 248 251 252 252 256 257 256 257 261 261 250 243 238 215 223 239 243 244 250 257 259 259 259 261 265 269 274 274 272 276 279 278 271 263 264 267
259 270 286 295 288 275 284 276 256 255 237 224 231 225 225 230 230 234 233 223 223 211 196 215 227 224 223 224 224 230 231 230 239 242 239 238 230 218 220 217 203 189 170 171 177 177 204 227 225 230 246 242 237 241 243 245 251 255 259 261 257 255 255 253 247 229 229 240 246 246 250 250 251 256 260 263 266 267 266 265 270 278 279 276 273 268 265 266
267 280 290 298 294 230 249 262 250 258 253 232 237 236 237 240 236 239 245 231 230 233 224 219 222 224 228 228 224 227 230 231 236 241 245 252 253 242 228 208 193 180 165 181 195 180 195 220 215 215 237 242 236 239 241 244 249 248 243 243 241 242 248 252 252 247 241 240 244 245 241 239 245 253 258 262 263 261 259 261 269 273 272 273 274 268 263 264
Height
1554 1553 1552 1552 1551 1550 1550 1549 1548 1547 1546 1545 1544 1544 1543 1542 1542 1542 1541 1541 1540 1540 1539 1539 1538 1538 1537 1537 1536 1536 1536 1535 1535 1534 1533 1532 1532 1532 1532 1532 1532 1532 1531 1531 1531 1531 1531 1531 1532 1532 1532 1531 1531 1530 1530 1530 1529 1530 1528 1527 1524 1518 1515 1513 1513 1514 1514 1513 1513 1515 1516 1516 1515 1517 1518 1519 1519 1520 1519 1518 1519 1519 1518 1518 1517 1518 1518 1517
1554 1553 1553 1552 1551 1550 1550 1549 1548 1547 1546 1545 1544 1543 1543 1542 1541 1541 1540 1540 1540 1539 1539 1538 1538 1537 1537 1537 1536 1536 1536 1535 1534 1533 1532 1532 1532 1531 1532 1532 1532 1531 1531 1531 1531 1531 1531 1532 1532 1532 1532 1531 1530 1529 1529 1529 1529 1528 1524 1524 1521 1514 1512 1511 1512 1512 1513 1514 1513 1514 1516 1516 1515 1515 1517 1518 1517 1517 1517 1515 1517 1517 1516 1515 1514 1516 1516 1515
1554 1553 1553 1552 1551 1550 1550 1549 1548 1547 1546 1545 1544 1543 1542 1542 1541 1541 1540 1539 1539 1539 1538 1538 1537 1537 1537 1536 1536 1536 1535 1535 1534 1532 1531 1531 1531 1531 1531 1531 1531 1531 1531 1531 1531 1531 1531 1531 1531 1531 1531 1530 1528 1529 1528 1528 1528 1525 1524 1524 1517 1511 1510 1511 1512 1513 1514 1514 1513 1514 1515 1515 1515 1515 1517 1516 1514 1513 1512 1511 1513 1513 1512 1512 1511 1512 1513 1513
1553 1553 1553 1552 1551 1551 1550 1549 1548 1547 1546 1545 1544 1543 1543 1542 1541 1540 1539 1539 1538 1538 1537 1537 1537 1536 1536 1536 1536 1536 1536 1535 1531 1529 1529 1530 1530 1530 1531 1531 1531 1531 1530 1531 1530 1530 1530 1530 1530 1530 1530 1528 1527 1528 1526 1526 1525 1524 1523 1520 1513 1512 1512 1511 1512 1513 1514 1515 1514 1514 1515 1515 1514 1515 1515 1514 1513 1509 1506 1507 1508 1508 1508 1509 1508 1509 1511 1511
1553 1553 1552 1552 1551 1550 1550 1549 1548 1547 1546 1545 1545 1544 1543 1542 1541 1540 1539 1538 1538 1537 1537 1536 1536 1536 1535 1535 1535 1535 1536 1535 1528 1527 1528 1529 1529 1530 1530 1530 1530 1530 1530 1530 1530 1530 1529 1529 1529 1529 1529 1526 1525 1526 1524 1523 1524 1523 1519 1514 1512 1513 1513 1512 1512 1514 1514 1515 1515 1514 1515 1514 1513 1514 1512 1513 1510 1504 1503 1504 1504 1505 1507 1507 1506 1507 1508 1508
1553 1552 1552 1551 1550 1550 1549 1548 1548 1547 1546 1545 1545 1544 1543 1542 1541 1540 1539 1538 1537 1537 1536 1536 1535 1535 1535 1534 1534 1534 1536 1532 1527 1527 1527 1527 1529 1529 1529 1529 1530 1529 1529 1529 1529 1529 1529 1529 1529 1528 1527 1524 1523 1522 1521 1521 1523 1522 1515 1511 1512 1513 1513 1512 1513 1513 1514 1515 1514 1514 1513 1512 1513 1511 1510 1509 1504 1500 1502 1502 1503 1504 1505 1505 1504 1505 1505 1505
1552 1551 1551 1550 1550 1549 1548 1548 1547 1546 1546 1545 1544 1543 1543 1541 1541 1540 1539 1538 1537 1536 1536 1535 1534 1534 1534 1534 1533 1533 1533 1530 1527 1528 1527 1528 1528 1528 1529 1529 1529 1529 1528 1529 1529 1529 1529 1529 1528 1526 1525 1523 1521 1519 1520 1521 1522 1521 1516 1512 1512 1513 1512 1512 1512 1512 1513 1514 1513 1513 1512 1511 1511 1508 1507 1503 1498 1500 1502 1501 1501 1502 1502 1503 1502 1502 1502 1503
1550 1550 1550 1550 1549 1549 1548 1547 1546 1546 1545 1544 1544 1543 1542 1541 1540 1539 1538 1537 1536 1536 1535 1534 1534 1533 1533 1533 1533 1532 1531 1528 1526 1527 1527 1527 1527 1527 1528 1527 1528 1528 1528 1528 1528 1529 1529 1528 1527 1526 1524 1521 1520 1519 1520 1520 1519 1519 1515 1512 1512 1512 1512 1512 1512 1512 1512 1512 1512 1512 1511 1510 1509 1508 1504 1497 1495 1498 1500 1499 1499 1499 1500 1500 1499 1499 1500 1500
1549 1549 1549 1548 1548 1548 1547 1546 1546 1545 1544 1544 1543 1542 1541 1541 1540 1539 1538 1537 1536 1535 1534 1534 1533 1533 1532 1532 1533 1531 1527 1525 1526 1526 1526 1526 1526 1526 1526 1527 1527 1527 1527 1527 1528 1528 1528 1527 1526 1526 1524 1521 1520 1519 1520 1521 1517 1515 1514 1512 1512 1511 1510 1511 1510 1510 1511 1510 1511 1511 1509 1508 1507 1507 1500 1491 1492 1494 1496 1498 1496 1496 1496 1496 1496 1496 1496 1497
1548 1547 1547 1547 1546 1546 1545 1545 1545 1544 1544 1543 1542 1541 1540 1540 1539 1538 1537 1536 1535 1535 1534 1533 1532 1532 1532 1532 1533 1529 1524 1525 1525 1525 1525 1525 1525 1525 1525 1526 1526 1526 1527 1527 1527 1527 1527 1527 1526 1526 1525 1522 1521 1519 1520 1520 1516 1515 1515 1513 1511 1510 1509 1509 1508 1508 1508 1508 1509 1508 1506 1505 1506 1507 1495 1486 1489 1490 1492 1494 1494 1493 1493 1493 1493 1493 1493 1493
1546 1546 1546 1545 1545 1545 1544 1544 1543 1543 1543 1542 1541 1541 1539 1539 1538 1537 1536 1535 1535 1534 1533 1532 1531 1531 1531 1531 1531 1526 1523 1524 1524 1523 1524 1523 1523 1523 1523 1524 1525 1526 1526 1526 1526 1526 1526 1526 1525 1526 1524 1522 1520 1519 1518 1518 1516 1516 1516 1513 1509 1507 1506 1506 1505 1505 1506 1506 1505 1506 1505 1503 1505 1504 1489 1483 1487 1488 1490 1491 1491 1491 1490 1490 1490 1490 1490 1489
1545 1544 1544 1544 1543 1543 1542 1542 1541 1541 1541 1541 1540 1539 1538 1538 1537 1536 1535 1534 1534 1533 1532 1531 1531 1530 1530 1530 1528 1524 1523 1523 1522 1522 1522 1522 1522 1522 1522 1523 1523 1524 1524 1525 1525 1524 1525 1525 1525 1525 1523 1522 1520 1518 1518 1517 1517 1517 1516 1513 1506 1503 1502 1499 1500 1501 1502 1503 1502 1505 1504 1496 1497 1493 1480 1481 1486 1485 1488 1488 1488 1488 1486 1487 1487 1487 1487 1486
1543 1543 1542 1542 1541 1541 1541 1540 1540 1539 1539 1539 1538 1538 1537 1536 1535 1535 1534 1533 1532 1532 1531 1530 1530 1529 1529 1527 1523 1522 1522 1521 1521 1521 1520 1520 1521 1520 1521 1521 1522 1523 1523 1523 1523 1523 1524 1523 1524 1523 1522 1522 1519 1518 1518 1517 1518 1516 1514 1513 1508 1504 1497 1492 1495 1499 1500 1500 1500 1505 1501 1485 1482 1482 1476 1480 1483 1483 1486 1485 1485 1484 1483 1483 1483 1483 1483 1483
1541 1541 1540 1540 1539 1539 1539 1538 1538 1537 1537 1536 1536 1536 1535 1534 1534 1533 1532 1532 1531 1531 1530 1529 1529 1528 1528 1524 1520 1520 1520 1520 1520 1518 1518 1519 1519 1519 1519 1520 1520 1521 1521 1522 1522 1522 1522 1522 1522 1522 1521 1521 1519 1519 1517 1516 1516 1513 1512 1511 1509 1506 1496 1488 1493 1496 1497 1499 1498 1503 1501 1483 1474 1475 1475 1477 1479 1481 1482 1481 1482 1481 1479 1479 1479 1479 1478 1479
1540 1539 1539 1538 1537 1537 1537 1536 1536 1535 1535 1534 1534 1534 1533 1533 1532 1531 1531 1530 1529 1529 1528 1528 1527 1527 1526 1521 1518 1518 1517 1517 1517 1516 1517 1517 1517 1518 1518 1518 1519 1519 1520 1520 1520 1520 1521 1521 1521 1520 1519 1519 1519 1519 1516 1512 1510 1509 1513 1509 1502 1502 1495 1488 1492 1492 1492 1496 1497 1500 1497 1483 1473 1471 1472 1475 1477 1479 1479 1478 1479 1477 1476 1475 1474 1474 1474 1474
1537 1537 1536 1536 1535 1535 1535 1534 1534 1533 1532 1532 1532 1532 1531 1530 1529 1529 1528 1527 1528 1527 1526 1526 1525 1526 1525 1519 1516 1515 1515 1515 1514 1514 1515 1515 1516 1516 1516 1517 1517 1518 1519 1519 1519 1520 1520 1520 1520 1519 1519 1518 1517 1517 1514 1512 1507 1504 1509 1507 1499 1497 1492 1486 1490 1491 1489 1493 1496 1496 1490 1480 1473 1471 1472 1474 1475 1477 1477 1475 1475 1474 1472 1471 1469 1468 1469 1469
1535 1534 1534 1533 1533 1533 1532 1532 1531 1531 1530 1530 1530 1529 1529 1528 1527 1526 1526 1525 1525 1524 1525 1524 1523 1525 1521 1516 1514 1513 1512 1512 1512 1512 1513 1514 1514 1515 1516 1516 1516 1517 1517 1518 1518 1518 1519 1519 1519 1517 1516 1516 1513 1514 1519 1519 1510 1500 1500 1501 1496 1492 1489 1486 1487 1489 1490 1491 1491 1492 1489 1480 1473 1472 1472 1473 1473 1474 1474 1472 1470 1469 1467 1466 1466 1464 1462 1463
1532 1532 1531 1531 1530 1530 1530 1529 1529 1528 1528 1527 1527 1526 1526 1526 1524 1524 1523 1522 1522 1523 1523 1522 1523 1525 1518 1512 1512 1511 1510 1511 1510 1511 1511 1512 1512 1513 1515 1515 1516 1517 1517 1517 1517 1517 1518 1518 1517 1516 1513 1512 1510 1512 1519 1514 1503 1497 1495 1496 1493 1488 1487 1484 1482 1485 1488 1490 1489 1488 1485 1478 1472 1472 1471 1471 1471 1470 1468 1467 1466 1463 1460 1461 1461 1460 1457 1456
1530 1530 1529 1529 1528 1528 1527 1527 1526 1525 1525 1525 1525 1524 1523 1522 1522 1520 1519 1519 1520 1520 1519 1517 1518 1519 1514 1509 1510 1510 1509 1509 1509 1509 1510 1510 1511 1512 1513 1514 1515 1516 1516 1516 1514 1515 1516 1516 1517 1516 1510 1505 1504 1505 1506 1500 1494 1495 1494 1495 1495 1491 1487 1480 1480 1485 1486 1489 1489 1485 1480 1473 1470 1470 1467 1467 1468 1466 1464 1463 1460 1456 1455 1455 1456 1455 1452 1451
1528 1528 1527 1527 1526 1526 1525 1525 1524 1523 1523 1523 1522 1522 1521 1521 1519 1517 1516 1515 1515 1514 1514 1513 1512 1511 1510 1508 1509 1509 1508 1508 1508 1508 1508 1509 1511 1512 1513 1514 1515 1515 1514 1512 1512 1513 1514 1515 1513 1507 1499 1496 1496 1495 1495 1493 1492 1494 1495 1496 1495 1493 1488 1478 1480 1486 1486 1487 1483 1478 1476 1470 1467 1466 1464 1464 1464 1462 1460 1457 1454 1451 1450 1450 1450 1449 1448 1447
1526 1526 1525 1525 1525 1524 1523 1523 1522 1522 1521 1520 1520 1521 1520 1519 1518 1516 1514 1512 1510 1510 1510 1510 1510 1509 1507 1507 1507 1507 1507 1507 1506 1506 1507 1508 1510 1511 1511 1511 1513 1512 1509 1509 1511 1511 1513 1514 1504 1494 1490 1491 1492 1491 1492 1493 1493 1495 1496 1497 1494 1491 1485 1476 1480 1486 1487 1489 1481 1474 1473 1467 1464 1463 1461 1461 1460 1458 1456 1451 1447 1446 1446 1446 1445 1444 1445 1445
1524 1524 1523 1523 1522 1522 1521 1521 1520 1520 1520 1519 1519 1519 1518 1518 1517 1516 1515 1511 1507 1506 1507 1506 1506 1505 1505 1506 1505 1505 1506 1505 1504 1502 1504 1506 1508 1508 1507 1508 1508 1505 1504 1507 1510 1511 1512 1506 1493 1487 1489 1491 1491 1492 1494 1494 1495 1496 1496 1499 1496 1488 1481 1477 1481 1486 1487 1489 1480 1473 1473 1465 1460 1460 1457 1456 1453 1451 1450 1446 1444 1443 1443 1441 1440 1441 1442 1443
1522 1521 1521 1521 1520 1521 1519 1519 1519 1518 1518 1517 1517 1517 1516 1515 1515 1515 1515 1512 1505 1502 1502 1502 1502 1502 1502 1502 1501 1503 1503 1501 1500 1498 1499 1503 1503 1504 1505 1504 1502 1501 1502 1504 1504 1507 1506 1495 1486 1486 1489 1490 1491 1493 1495 1496 1496 1495 1495 1498 1493 1484 1484 1482 1482 1486 1487 1485 1480 1477 1475 1464 1455 1453 1449 1447 1445 1444 1444 1444 1443 1441 1440 1437 1436 1438 1439 1439
1520 1520 1520 1519 1519 1519 1517 1517 1517 1516 1516 1515 1515 1515 1514 1514 1514 1514 1514 1510 1502 1498 1497 1497 1497 1497 1497 1497 1497 1499 1499 1496 1496 1494 1494 1497 1499 1501 1500 1499 1499 1498 1497 1496 1496 1497 1493 1486 1485 1487 1489 1490 1491 1492 1494 1496 1493 1491 1492 1493 1487 1481 1483 1480 1479 1484 1481 1479 1481 1480 1472 1454 1444 1443 1439 1437 1439 1440 1441 1441 1440 1438 1436 1434 1433 1435 1436 1436
1519 1519 1518 1518 1518 1517 1516 1515 1514 1514 1514 1513 1514 1513 1513 1514 1514 1514 1514 1509 1499 1494 1493 1493 1493 1492 1491 1492 1493 1494 1495 1492 1491 1490 1490 1493 1496 1497 1496 1497 1497 1493 1490 1491 1492 1491 1485 1484 1486 1488 1489 1490 1492 1490 1490 1493 1491 1488 1485 1483 1481 1479 1479 1478 1481 1486 1484 1480 1479 1481 1473 1446 1430 1434 1433 1433 1436 1437 1439 1439 1436 1433 1432 1433 1431 1430 1432 1433
1518 1518 1517 1517 1516 1516 1515 1514 1513 1514 1512 1513 1513 1512 1514 1514 1513 1514 1513 1507 1496 1487 1488 1489 1487 1486 1486 1487 1488 1492 1495 1489 1485 1487 1489 1491 1493 1494 1495 1494 1492 1490 1487 1487 1489 1486 1483 1484 1486 1487 1489 1490 1493 1490 1485 1488 1491 1488 1483 1480 1480 1480 1481 1481 1484 1490 1488 1479 1475 1481 1481 1453 1430 1432 1431 1430 1434 1433 1435 1435 1430 1429 1429 1429 1429 1427 1428 1430
1517 1516 1516 1516 1516 1515 1515 1513 1514 1513 1512 1513 1512 1512 1514 1512 1514 1514 1512 1509 1492 1476 1480 1484 1483 1482 1482 1484 1485 1490 1492 1484 1482 1485 1487 1489 1491 1493 1493 1489 1488 1489 1486 1490 1492 1484 1478 1484 1487 1487 1489 1490 1492 1487 1480 1483 1488 1486 1485 1485 1483 1482 1484 1485 1487 1491 1485 1478 1475 1477 1484 1467 1439 1432 1430 1428 1433 1432 1432 1432 1426 1424 1424 1424 1426 1425 1424 1426
1516 1516 1514 1514 1515 1515 1514 1513 1513 1512 1512 1512 1511 1514 1513 1513 1516 1512 1516 1517 1489 1468 1475 1479 1480 1480 1480 1483 1483 1484 1485 1481 1482 1484 1484 1487 1489 1491 1490 1485 1484 1485 1485 1490 1489 1479 1476 1483 1485 1486 1490 1489 1485 1482 1478 1480 1483 1485 1487 1486 1485 1486 1487 1486 1488 1489 1483 1483 1480 1472 1480 1474 1438 1421 1425 1424 1429 1432 1429 1427 1422 1419 1419 1420 1423 1422 1422 1423
1515 1514 1513 1513 1514 1514 1514 1512 1512 1511 1511 1511 1512 1513 1511 1515 1515 1510 1521 1517 1479 1463 1474 1476 1478 1480 1478 1482 1483 1481 1482 1481 1482 1483 1484 1487 1487 1488 1488 1485 1485 1484 1485 1486 1482 1477 1479 1483 1483 1483 1486 1482 1479 1482 1482 1480 1481 1485 1488 1486 1487 1488 1487 1489 1490 1488 1488 1488 1480 1468 1476 1475 1436 1412 1421 1425 1426 1428 1424 1421 1418 1415 1416 1417 1419 1419 1419 1420
1514 1513 1512 1512 1512 1513 1512 1511 1511 1511 1510 1511 1512 1512 1513 1515 1513 1515 1522 1502 1469 1466 1475 1474 1475 1476 1476 1481 1482 1481 1482 1481 1482 1484 1486 1487 1487 1488 1487 1486 1488 1486 1486 1486 1483 1480 1481 1484 1484 1482 1480 1477 1480 1485 1486 1485 1484 1486 1487 1486 1489 1489 1488 1491 1487 1488 1493 1479 1464 1458 1463 1470 1446 1415 1416 1422 1419 1417 1416 1416 1414 1411 1412 1414 1415 1416 1416 1417
1512 1511 1510 1510 1510 1511 1511 1511 1511 1510 1511 1511 1511 1513 1514 1513 1513 1516 1506 1480 1466 1470 1472 1472 1474 1472 1473 1475 1474 1477 1479 1479 1481 1483 1484 1485 1486 1487 1487 1487 1489 1490 1489 1488 1483 1479 1481 1483 1481 1478 1476 1477 1481 1485 1487 1488 1487 1486 1486 1485 1488 1487 1487 1491 1488 1493 1497 1468 1446 1446 1449 1459 1448 1419 1411 1412 1407 1407 1409 1411 1411 1409 1410 1410 1412 1412 1413 1414
1510 1509 1508 1507 1508 1508 1509 1510 1509 1510 1510 1510 1511 1513 1512 1514 1511 1499 1483 1472 1471 1468 1463 1467 1470 1470 1471 1470 1468 1472 1475 1476 1477 1478 1479 1482 1483 1482 1482 1479 1480 1486 1486 1481 1478 1476 1475 1474 1472 1474 1477 1477 1478 1481 1487 1490 1489 1487 1485 1485 1489 1487 1486 1488 1486 1486 1480 1455 1441 1443 1447 1448 1431 1410 1408 1407 1405 1406 1404 1405 1408 1407 1408 1408 1409 1410 1410 1411
1507 1507 1506 1505 1504 1505 1506 1507 1507 1509 1509 1509 1512 1510 1512 1517 1499 1474 1469 1471 1468 1463 1461 1464 1467 1469 1471 1470 1470 1471 1473 1472 1473 1475 1475 1477 1479 1477 1475 1472 1471 1476 1474 1471 1474 1474 1470 1467 1469 1474 1473 1472 1473 1474 1478 1481 1484 1484 1479 1481 1486 1485 1486 1487 1479 1470 1459 1444 1441 1448 1451 1442 1420 1404 1402 1401 1402 1403 1400 1403 1405 1404 1406 1407 1406 1407 1408 1409
1505 1505 1503 1501 1501 1502 1503 1505 1505 1507 1508 1509 1510 1508 1514 1511 1480 1460 1465 1466 1461 1462 1464 1465 1467 1470 1471 1469 1468 1468 1471 1471 1469 1474 1475 1475 1478 1475 1471 1469 1469 1470 1471 1472 1471 1469 1470 1463 1460 1464 1462 1461 1464 1461 1461 1465 1473 1475 1469 1470 1473 1471 1476 1476 1465 1457 1450 1441 1443 1454 1451 1431 1412 1400 1392 1391 1394 1398 1400 1401 1401 1402 1404 1404 1405 1405 1406 1406
1502 1501 1500 1498 1497 1496 1498 1501 1503 1505 1506 1508 1510 1509 1506 1492 1469 1463 1465 1460 1459 1463 1465 1468 1469 1471 1470 1468 1468 1466 1467 1468 1467 1472 1473 1471 1470 1465 1460 1460 1462 1465 1470 1474 1466 1464 1469 1456 1447 1455 1455 1455 1458 1456 1456 1462 1468 1469 1466 1470 1469 1459 1460 1462 1454 1451 1458 1456 1446 1448 1438 1410 1396 1392 1387 1390 1390 1392 1399 1398 1398 1401 1400 1401 1403 1402 1403 1404
1497 1496 1496 1493 1490 1491 1495 1498 1499 1501 1502 1505 1512 1508 1491 1471 1462 1464 1461 1457 1459 1461 1465 1469 1468 1470 1469 1464 1466 1467 1466 1467 1468 1470 1469 1466 1462 1456 1452 1450 1452 1456 1459 1462 1458 1458 1463 1455 1450 1457 1456 1456 1460 1457 1458 1460 1461 1464 1467 1467 1462 1455 1455 1459 1458 1455 1466 1466 1440 1426 1421 1402 1393 1390 1383 1387 1390 1390 1395 1394 1394 1397 1396 1399 1400 1399 1401 1401
1491 1490 1489 1485 1484 1487 1491 1493 1494 1497 1498 1500 1506 1498 1479 1464 1459 1459 1458 1458 1460 1459 1464 1467 1463 1463 1463 1459 1459 1463 1466 1467 1468 1468 1465 1462 1455 1447 1447 1447 1445 1447 1447 1448 1450 1450 1452 1452 1453 1457 1457 1458 1462 1459 1459 1459 1458 1462 1465 1460 1455 1458 1460 1461 1465 1460 1461 1459 1431 1413 1411 1401 1397 1393 1384 1386 1390 1389 1389 1389 1391 1392 1393 1396 1396 1396 1397 1397
1485 1484 1481 1477 1478 1481 1486 1489 1489 1491 1494 1497 1497 1485 1469 1461 1457 1456 1457 1458 1458 1459 1462 1463 1457 1454 1455 1455 1451 1454 1462 1462 1463 1466 1461 1456 1447 1435 1439 1444 1441 1442 1441 1444 1450 1448 1449 1452 1454 1458 1460 1460 1462 1462 1459 1459 1460 1459 1460 1458 1457 1461 1461 1459 1465 1464 1460 1457 1434 1412 1404 1394 1388 1387 1385 1389 1389 1385 1385 1386 1388 1389 1390 1392 1392 1393 1394 1394
1482 1480 1474 1470 1472 1476 1481 1484 1485 1488 1492 1493 1491 1478 1463 1456 1454 1455 1456 1455 1456 1458 1458 1456 1453 1451 1450 1451 1448 1450 1457 1455 1456 1461 1456 1450 1442 1430 1432 1438 1438 1439 1439 1443 1449 1446 1448 1452 1452 1459 1464 1461 1461 1461 1455 1455 1461 1463 1462 1459 1457 1456 1453 1449 1452 1451 1450 1450 1437 1421 1406 1383 1369 1370 1375 1382 1382 1379 1381 1382 1385 1386 1386 1387 1388 1389 1390 1391
1477 1475 1469 1465 1469 1473 1477 1480 1482 1486 1486 1482 1478 1468 1457 1454 1454 1455 1455 1455 1455 1456 1455 1453 1453 1452 1449 1449 1449 1449 1452 1450 1450 1453 1449 1443 1437 1430 1430 1432 1435 1437 1438 1442 1445 1444 1449 1451 1449 1459 1467 1461 1452 1448 1444 1443 1449 1458 1461 1457 1455 1454 1453 1452 1447 1438 1439 1442 1437 1433 1415 1374 1354 1361 1366 1371 1375 1374 1376 1378 1380 1382 1382 1383 1385 1385 1386 1387
1474 1471 1465 1464 1467 1470 1476 1479 1479 1480 1479 1474 1468 1461 1456 1455 1454 1454 1454 1455 1455 1454 1455 1455 1454 1454 1451 1449 1448 1447 1450 1451 1448 1447 1444 1439 1435 1431 1429 1429 1431 1434 1439 1444 1444 1442 1447 1447 1445 1450 1455 1449 1437 1431 1432 1431 1432 1438 1442 1441 1442 1443 1448 1454 1449 1436 1436 1437 1428 1431 1419 1374 1351 1361 1364 1366 1372 1372 1374 1376 1377 1378 1379 1380 1381 1381 1382 1383
1471 1467 1463 1463 1466 1469 1472 1474 1473 1473 1472 1467 1460 1456 1456 1456 1453 1453 1453 1454 1455 1455 1456 1456 1455 1454 1452 1449 1447 1446 1449 1451 1448 1446 1441 1436 1434 1432 1429 1429 1430 1431 1435 1440 1438 1436 1438 1441 1442 1440 1435 1431 1429 1429 1431 1430 1429 1430 1430 1428 1428 1430 1433 1439 1439 1432 1434 1435 1424 1426 1419 1378 1352 1360 1365 1366 1372 1373 1374 1376 1375 1375 1376 1376 1377 1376 1377 1378
1468 1465 1464 1464 1465 1466 1469 1471 1471 1470 1465 1459 1455 1454 1455 1455 1453 1452 1451 1451 1453 1454 1455 1454 1452 1451 1449 1448 1448 1448 1449 1448 1445 1442 1440 1436 1434 1432 1431 1432 1433 1433 1433 1434 1433 1434 1437 1441 1443 1439 1431 1425 1426 1430 1433 1432 1433 1432 1427 1425 1423 1422 1421 1421 1424 1424 1427 1429 1421 1421 1418 1384 1355 1359 1365 1367 1371 1372 1373 1374 1372 1371 1371 1372 1372 1372 1373 1374
1464 1463 1464 1464 1464 1464 1464 1464 1465 1465 1461 1459 1457 1456 1454 1453 1451 1450 1448 1447 1448 1450 1450 1449 1447 1447 1446 1447 1448 1448 1449 1449 1445 1442 1442 1441 1435 1432 1433 1434 1435 1436 1436 1436 1435 1435 1438 1438 1440 1444 1444 1439 1433 1431 1431 1433 1435 1429 1422 1421 1420 1419 1420 1420 1422 1425 1425 1418 1408 1409 1406 1379 1355 1357 1363 1365 1368 1369 1368 1368 1366 1365 1367 1368 1368 1368 1370 1370
1462 1460 1459 1460 1461 1460 1455 1454 1455 1457 1459 1459 1456 1453 1452 1451 1447 1445 1444 1443 1443 1445 1445 1443 1442 1443 1444 1446 1447 1447 1446 1448 1447 1443 1443 1442 1435 1432 1433 1433 1434 1435 1435 1436 1436 1435 1436 1435 1436 1442 1445 1443 1435 1423 1416 1422 1429 1427 1420 1418 1417 1418 1421 1420 1422 1427 1421 1407 1400 1401 1393 1372 1357 1358 1359 1360 1363 1364 1362 1360 1360 1362 1362 1363 1364 1365 1365 1366
1460 1457 1456 1457 1458 1454 1449 1448 1449 1449 1451 1455 1453 1450 1449 1448 1442 1440 1442 1442 1440 1439 1439 1439 1440 1442 1442 1443 1444 1444 1442 1441 1442 1440 1439 1438 1433 1429 1429 1430 1431 1432 1431 1433 1435 1435 1436 1433 1431 1432 1431 1429 1425 1413 1407 1411 1419 1422 1419 1416 1415 1416 1416 1418 1421 1418 1407 1397 1397 1394 1384 1375 1370 1365 1359 1357 1358 1358 1356 1353 1354 1358 1359 1359 1360 1360 1360 1361
1458 1452 1451 1454 1455 1451 1448 1447 1445 1443 1442 1445 1445 1442 1441 1441 1439 1438 1438 1437 1434 1434 1435 1436 1438 1438 1437 1437 1438 1438 1435 1434 1435 1436 1434 1431 1427 1424 1425 1427 1427 1428 1429 1431 1431 1433 1435 1432 1427 1427 1425 1422 1420 1414 1410 1409 1409 1411 1412 1413 1413 1412 1412 1417 1414 1401 1394 1398 1398 1387 1379 1378 1375 1369 1363 1357 1352 1351 1350 1348 1349 1353 1355 1355 1355 1355 1356 1357
1456 1448 1445 1446 1445 1443 1443 1441 1440 1438 1437 1437 1436 1433 1432 1434 1435 1434 1432 1430 1429 1431 1433 1433 1432 1430 1428 1429 1431 1430 1429 1430 1431 1430 1429 1425 1422 1420 1422 1423 1423 1423 1425 1428 1429 1431 1433 1430 1427 1426 1423 1420 1419 1415 1411 1407 1404 1405 1406 1406 1406 1407 1409 1409 1400 1389 1392 1398 1391 1379 1375 1374 1371 1369 1364 1355 1349 1346 1344 1344 1345 1347 1350 1350 1351 1352 1353 1353
1452 1447 1444 1443 1438 1433 1432 1430 1430 1431 1431 1432 1430 1427 1427 1426 1425 1424 1424 1425 1424 1424 1426 1425 1422 1422 1421 1421 1423 1423 1423 1425 1424 1421 1419 1417 1415 1418 1420 1419 1418 1420 1421 1423 1425 1428 1430 1429 1427 1426 1424 1422 1421 1417 1413 1409 1406 1405 1404 1401 1400 1401 1401 1396 1389 1389 1393 1389 1378 1372 1372 1369 1366 1364 1358 1351 1346 1343 1341 1341 1341 1341 1344 1346 1348 1350 1349 1349
1449 1446 1444 1442 1436 1433 1431 1429 1429 1428 1427 1428 1425 1421 1422 1420 1416 1415 1415 1416 1418 1417 1418 1417 1414 1413 1413 1414 1417 1416 1414 1414 1411 1408 1407 1409 1411 1415 1415 1412 1413 1418 1420 1420 1422 1425 1426 1425 1423 1426 1427 1423 1419 1416 1413 1411 1407 1403 1401 1400 1399 1398 1391 1385 1386 1390 1390 1381 1371 1369 1372 1367 1360 1354 1349 1346 1344 1343 1342 1338 1335 1337 1340 1341 1344 1346 1345 1344
1446 1444 1444 1442 1436 1432 1432 1430 1430 1428 1425 1424 1421 1417 1417 1413 1410 1410 1406 1404 1407 1408 1407 1407 1406 1405 1405 1407 1409 1408 1407 1405 1401 1398 1398 1401 1404 1407 1407 1405 1408 1415 1419 1420 1421 1423 1424 1422 1422 1427 1425 1415 1410 1409 1407 1407 1406 1405 1405 1402 1397 1390 1380 1376 1379 1380 1377 1374 1370 1372 1374 1365 1353 1346 1344 1342 1342 1342 1338 1332 1332 1336 1336 1335 1338 1341 1340 1337
1443 1442 1442 1441 1435 1430 1429 1428 1428 1426 1421 1419 1417 1415 1412 1409 1408 1409 1405 1399 1399 1400 1399 1398 1400 1400 1399 1398 1398 1397 1397 1395 1393 1392 1393 1395 1397 1400 1402 1403 1403 1408 1414 1416 1418 1419 1420 1418 1419 1421 1416 1405 1401 1401 1401 1405 1408 1405 1398 1388 1380 1377 1376 1376 1373 1366 1363 1365 1366 1366 1360 1351 1345 1344 1343 1340 1337 1333 1327 1327 1333 1334 1330 1329 1332 1334 1333 1330